Tracking 19795 objects as of 18-Jul-2019
HD Live streaming from Space Station
objects crossing your sky now

COSMOS 1275 DEB

Track COSMOS 1275 DEB now!
10-day predictions


NORAD ID: 14440
Int'l Code: 1981-053JK
Perigee: 950.7 km
Apogee: 1,125.1 km
Inclination: 82.9 °
Period: 105.8 minutes
Semi major axis: 7408 km
RCS: 0.017 m2 (small)
Launch date: June 4, 1981
Source: Commonwealth of Independent States (former USSR) (CIS)
Launch site: PLESETSK MISSILE AND SPACE COMPLEX (PKMTR)

Note: This is SATELLITE DEBRIS
aabbcc
Your satellite tracking list
Your tracking list is empty




NASA's NSSDC Master Catalog

Two Line Element Set (TLE):
1 14440U 81053JG  19198.54588285 -.00000028  00000-0 -55167-4 0  9993
2 14440  82.9212 234.5176 0117742 110.9032  40.7762 13.61361831869748
Source of the keplerian elements: AFSPC